TimeEDT,TemperatureF,Dew PointF,Humidity,Sea Level PressureIn,VisibilityMPH,Wind Direction,Wind SpeedMPH,Gust SpeedMPH,PrecipitationIn,Events,Conditions,WindDirDegrees,DateUTC
12:13 AM,62.6,59.0,88,29.99,8.0,NNE,6.9,-,N/A,,Overcast,30,2012-10-27 04:13:00
12:25 AM,62.6,59.0,88,29.98,9.0,NE,8.1,-,N/A,,Overcast,40,2012-10-27 04:25:00
12:50 AM,62.6,59.0,88,29.98,10.0,NE,8.1,-,N/A,,Overcast,40,2012-10-27 04:50:00
12:53 AM,63.0,59.0,87,29.95,10.0,NE,8.1,-,N/A,,Overcast,40,2012-10-27 04:53:00
1:40 AM,62.6,59.0,88,29.96,10.0,NE,9.2,-,N/A,,Overcast,40,2012-10-27 05:40:00
1:53 AM,63.0,59.0,87,29.93,10.0,NE,9.2,-,N/A,,Overcast,50,2012-10-27 05:53:00
2:06 AM,62.6,59.0,88,29.95,10.0,NE,11.5,-,N/A,,Overcast,50,2012-10-27 06:06:00
2:53 AM,63.0,59.0,87,29.91,10.0,NE,9.2,-,N/A,,Overcast,40,2012-10-27 06:53:00
3:53 AM,63.0,59.0,87,29.88,10.0,NNE,9.2,-,N/A,,Overcast,30,2012-10-27 07:53:00
4:53 AM,63.0,59.0,87,29.87,10.0,NE,8.1,-,N/A,,Overcast,40,2012-10-27 08:53:00
5:53 AM,63.0,59.0,87,29.87,10.0,NNE,9.2,-,N/A,,Overcast,20,2012-10-27 09:53:00
6:53 AM,63.0,59.0,87,29.87,10.0,NE,9.2,-,N/A,,Overcast,40,2012-10-27 10:53:00
7:31 AM,62.6,59.0,88,29.89,10.0,NNE,10.4,-,N/A,,Overcast,30,2012-10-27 11:31:00
7:53 AM,63.0,57.9,84,29.88,10.0,NE,11.5,-,N/A,,Overcast,50,2012-10-27 11:53:00
8:53 AM,63.0,57.9,84,29.89,10.0,NNE,10.4,-,N/A,,Overcast,30,2012-10-27 12:53:00
9:44 AM,64.4,57.2,77,29.91,10.0,NE,13.8,-,N/A,,Mostly Cloudy,50,2012-10-27 13:44:00
9:53 AM,64.9,57.0,75,29.88,10.0,NE,12.7,20.7,N/A,,Overcast,40,2012-10-27 13:53:00
11:26 AM,68.0,55.4,64,29.90,10.0,NNE,13.8,-,N/A,,Mostly Cloudy,20,2012-10-27 15:26:00
11:53 AM,66.0,54.0,65,29.86,10.0,NNE,13.8,-,N/A,,Scattered Clouds,20,2012-10-27 15:53:00
12:53 PM,68.0,54.0,61,29.83,10.0,NE,11.5,20.7,N/A,,Clear,40,2012-10-27 16:53:00
1:53 PM,68.0,53.1,59,29.80,10.0,NE,15.0,24.2,N/A,,Clear,50,2012-10-27 17:53:00
2:53 PM,68.0,53.1,59,29.79,10.0,NNE,15.0,21.9,N/A,,Partly Cloudy,30,2012-10-27 18:53:00
3:53 PM,68.0,53.1,59,29.78,10.0,NNE,12.7,23.0,N/A,,Partly Cloudy,30,2012-10-27 19:53:00
4:53 PM,66.9,52.0,59,29.77,10.0,NNE,13.8,-,N/A,,Clear,30,2012-10-27 20:53:00
5:53 PM,64.9,53.1,65,29.77,10.0,NE,10.4,-,N/A,,Scattered Clouds,50,2012-10-27 21:53:00
6:53 PM,63.0,53.1,70,29.77,10.0,NE,9.2,-,N/A,,Clear,40,2012-10-27 22:53:00
7:53 PM,63.0,53.1,70,29.76,10.0,NNE,9.2,-,N/A,,Clear,30,2012-10-27 23:53:00
8:53 PM,63.0,50.0,63,29.76,10.0,NNE,11.5,-,N/A,,Clear,30,2012-10-28 00:53:00
9:53 PM,62.1,50.0,65,29.77,10.0,NNE,13.8,-,N/A,,Clear,30,2012-10-28 01:53:00
10:53 PM,62.1,48.9,62,29.78,10.0,NNE,10.4,-,N/A,,Clear,20,2012-10-28 02:53:00